Cape Lisburne Lrrs Airport
PALU : now visible

Airfield :











YOU CAN JOIN US ON...

 
LOGIN :

Register | Disclaimer

   EN    FR    IT 

 









Legend :    VFR   Marginal VFR   IFR   Intensive IFR   Very Intensive IFR
Visi :
Ceiling :
>= 8 km
>= 3000ft
5 to 8 km
1000 to 3000 ft
1500m to 5 km
500 to 1000 ft
800 to 1500m
200 to 500 ft
< 800m
< 200 ft
Symbols :   Thunderstorms  Fog  Heavy snow  Heavy precipitations  Wind > 20 kt






- Airport Elevation : 16 ft
- IATA code : LUR


PALU - Cape Lisburne Lrrs

CURRENT METAR :
  • 040555Z AUTO 08005KT 1/2SM DZ FG VV003 01/01 A2989 RMK AO2 LTG DSNT SE SHRAB0444E0544DZB0544 SLP120 P0000 60000 T00060007 10011 20004 52009

EXPIRED METARs :
  • 040530Z AUTO 09005KT 1/2SM -SHRA FG VV003 01/01 A2988 RMK AO2 SLP119
  • 040455Z AUTO 06003KT 3/4SM -SHRA BR OVC002 01/01 A2988 RMK AO2 RAB0233E0259B0316E0358DZB0358E0444SHRAB0444 SLP118 P0000 T00060007
  • 040430Z AUTO 07004KT 3/4SM -DZ BR OVC002 01/01 A2987 RMK AO2 SLP116
  • 040355Z AUTO 07003KT 1/2SM -RA FG VV003 01/01 A2987 RMK AO2 RAB0233E0259B0316DZB0259E0340 SLP115 P0000 T00080009

Expired Forecast.
PAZA FIR / North America



MET'MAP, your aeronautical weather chart ! - Copyright ORBIFLY December 2007 - Disclaimer

ORBIFLY MET'MAP TEAM :

Programming & Development : Alexandra Zaïnal
Concept & original design : Baudouin d'Aumeries
Assistance for programming : Marc-Olivier Méhu
Technical & hardware support : Manuel Goepfert

Contact : metmap@orbifly.com




SOURCES & CREDITS :

   NOAA       Earth
Advisory